Weather in Dzhuyen

Russia / Khabarovsk Krai     49°50′55″N   136°15′21″E
temp.,
°C
wind,
m/s
gust,
m/s
humid.,
%
clouds,
%
prec.,
mm/h
press.,
hPa
HPBL,
m
9 may, sun
sun901:00+4ne91578100 0.0 1003407
04:00+4ne10177999 0.1 1003489
07:00+3ne12198395 0.0 1003567
10:00+5ne11187692 0.0 1004574
13:00+6ne121871100 0.0 1004531
16:00+8nne11186798 0.0 1004503
19:00+6nne111872100 0.0 1005496
22:00+5nne101774100 0.0 1007467
10 may, mon
mon1001:00+5nne91575100 0.1 1007465
04:00+4nne7137787 0.1 1008404
07:00+3ne8137255 0.0 1009445
10:00+6ne71158100 0.0 1010505
13:00+7ne8126024 0.0 1010495
16:00+8ene8125711 0.0 1011479
19:00+7ne813645 0.0 1012371
22:00+5nne7127128 0.0 1014283
11 may, tue
tue1101:00+4nne48805 0.0 1015130
04:00+3ne36865 0.0 101684
07:00+3ne36835 0.0 1017135
10:00+6nne23725 0.0 1018309
13:00+8sw126517 0.0 1017564
16:00+10sw336013 0.0 1016588
19:00+11s346130 0.0 1015262
22:00+10s346785 0.0 101641
12 may, wed
wed1201:00+8ssw3573100 0.0 101687
04:00+8s367538 0.0 1015118
07:00+7ssw3580100 0.0 1016131
10:00+10ssw4665100 0.0 1014278
13:00+13ssw6954100 0.0 1012775
16:00+13ssw6855100 0.0 1009598
19:00+13ssw51058100 0.0 1008466
22:00+8s71492100 2.4 1009447
13 may, thu
thu1301:00+8s61293100 1.0 1008324
04:00+8s6119594 1.3 1007276
07:00+8ssw6129189 0.2 1007328
10:00+9sw71280100 0.3 1006506
13:00+11wsw8126479 0.2 1006731
16:00+14w915450 0.2 1006805
19:00+12wnw47490 0.0 1007225
22:00+10s2256100 0.0 100811